Location: Spruce Knob
(38.6995°N, 79.5330°W)
Time: 20:57:17
(UTC-05:00)

Transit 2A Rocket - All Passes

Search period start: 27 January 2022 00:00
Search period end: 06 February 2022 00:00
Orbit: 585 x 917 km, 66.7° (Epoch: 27 January)

Date Brightness Start Highest point End Pass type
(mag) Time Alt. Az. Time Alt. Az. Time Alt. Az.
27 Jan - 02:18:51 10° N 02:22:48 19° NE 02:26:31 10° E night (unlit)
27 Jan - 04:00:32 10° NNW 04:06:03 68° WSW 04:10:59 10° SSE night (unlit)
27 Jan - 16:51:59 10° SE 16:55:47 18° ESE 16:59:39 10° ENE daylight
27 Jan - 18:31:46 10° SW 18:37:45 72° WNW 18:43:53 10° NNE visible
27 Jan - 20:18:08 10° WNW 20:21:28 15° NW 20:24:49 10° N visible
28 Jan - 01:37:14 10° NNE 01:39:33 12° NE 01:41:47 10° ENE night (unlit)
28 Jan - 03:17:47 10° NNW 03:23:21 69° ENE 03:28:21 10° SE night (unlit)
28 Jan - 05:02:31 10° WNW 05:05:07 14° WSW 05:07:37 10° SW night (unlit)
28 Jan - 17:49:06 10° SSW 17:55:04 71° ESE 18:01:10 10° NNE daylight
28 Jan - 19:33:38 10° W 19:38:16 22° NW 19:42:56 10° N visible
29 Jan - 02:35:16 10° NNW 02:40:30 40° NE 02:45:17 10° ESE night (unlit)
29 Jan - 04:18:26 10° NW 04:22:48 25° WSW 04:26:51 10° SSW night (unlit)
29 Jan - 17:06:53 10° S 17:12:29 42° ESE 17:18:12 10° NE daylight
29 Jan - 18:49:46 10° WSW 18:55:13 34° NW 19:00:43 10° NNE visible
30 Jan - 01:52:56 10° N 01:57:30 25° NE 02:01:44 10° ESE night (unlit)
30 Jan - 03:35:10 10° NW 03:40:23 46° WSW 03:45:05 10° S night (unlit)
30 Jan - 16:25:16 10° SSE 16:30:02 25° ESE 16:34:52 10° NE daylight
30 Jan - 18:06:24 10° SW 18:12:18 53° WNW 18:18:17 10° NNE visible
30 Jan - 19:54:26 10° NW 19:56:19 11° NW 19:58:13 10° NNW visible
31 Jan - 01:10:57 10° N 01:14:22 16° NE 01:17:36 10° E night (unlit)
31 Jan - 02:52:16 10° NNW 02:57:48 84° WSW 03:02:45 10° SSE night (unlit)
31 Jan - 15:44:40 10° SE 15:47:42 14° ESE 15:50:44 10° ENE daylight
31 Jan - 17:23:28 10° SSW 17:29:31 85° WNW 17:35:40 10° NNE daylight
31 Jan - 19:09:08 10° W 19:13:02 17° NW 19:16:56 10° N visible
01 Feb - 00:30:04 10° NNE 00:31:03 10° NE 00:32:01 10° NE night (unlit)
01 Feb - 02:09:36 10° NNW 02:15:03 56° ENE 02:19:58 10° SE night (unlit)
01 Feb - 03:53:38 10° WNW 03:57:00 17° WSW 04:00:11 10° SW night (unlit)
01 Feb - 16:40:58 10° S 16:46:52 59° ESE 16:52:52 10° NE daylight
01 Feb - 18:24:54 10° WSW 18:29:53 26° NW 18:34:53 10° N visible
02 Feb - 01:27:10 10° NNW 01:32:09 33° NE 01:36:43 10° ESE night (unlit)
02 Feb - 03:09:57 10° NW 03:14:39 31° WSW 03:18:58 10° S night (unlit)
02 Feb - 15:58:58 10° S 16:04:19 35° ESE 16:09:48 10° NE daylight
02 Feb - 17:41:14 10° WSW 17:46:53 39° NW 17:52:35 10° NNE daylight
03 Feb - 00:44:56 10° N 00:49:06 21° NE 00:52:58 10° E night (unlit)
03 Feb - 02:26:50 10° NW 02:32:10 57° WSW 02:36:58 10° SSE night (unlit)
03 Feb - 15:17:36 10° SSE 15:21:54 21° ESE 15:26:15 10° ENE daylight
03 Feb - 16:58:01 10° SW 17:04:01 63° WNW 17:10:06 10° NNE daylight
03 Feb - 18:45:02 10° WNW 18:47:51 13° NW 18:50:39 10° NNW visible
04 Feb - 00:03:09 10° N 00:05:53 14° NE 00:08:30 10° ENE night (unlit)
04 Feb - 01:44:02 10° NNW 01:49:32 80° ENE 01:54:27 10° SSE night (unlit)
04 Feb - 03:29:44 10° W 03:31:09 11° W 03:32:32 10° WSW night (unlit)
04 Feb - 14:37:55 10° ESE 14:39:36 11° E 14:41:18 10° E daylight
04 Feb - 16:15:14 10° SSW 16:21:17 81° ESE 16:27:25 10° NNE daylight
04 Feb - 18:00:15 10° W 18:04:36 20° NW 18:08:57 10° N visible
05 Feb - 01:01:27 10° NNW 01:06:43 45° NE 01:11:30 10° SE night (unlit)
05 Feb - 02:44:56 10° WNW 02:48:52 21° WSW 02:52:32 10° SSW night (unlit)
05 Feb - 15:32:54 10° S 15:38:40 49° ESE 15:44:31 10° NE daylight
05 Feb - 17:16:14 10° WSW 17:21:31 30° NW 17:26:48 10° N daylight
